Hourly Data Report for November 03, 2005

TORONTO CITY
ONTARIO

43°40'00.000" N
79°24'00.000" W
112.50 m
6158355
71508
XTO

Download Data

Hourly Data (November 2005)
Hourly Data Report for November 3, 2005
TIME
LST
Temp Definition
°C
Dew Point Definition
°C
Rel Hum Definition
%
Precip. Amount Definition
mm

Wind Dir Definition
10's deg

Wind Spd Definition
km/h
Visibility Definition
km
Stn Press Definition
kPa
Hmdx Definition


Wind Chill Definition


Weather Definition


00:00 10.3 8.2 87   LegendMM LegendMM   100.11     LegendNANA
01:00 10.2 8.6 90   LegendMM LegendMM   100.04     LegendNANA
02:00 10.4 8.7 89   LegendMM LegendMM   99.97     LegendNANA
03:00 10.6 8.8 89   LegendMM LegendMM   99.82     LegendNANA
04:00 11.1 7.9 81   LegendMM LegendMM   99.68     LegendNANA
05:00 11.1 7.9 81   LegendMM LegendMM   99.60     LegendNANA
06:00 11.1 8.0 81   LegendMM LegendMM   99.52     LegendNANA
07:00 11.5 7.7 77   LegendMM LegendMM   99.52     LegendNANA
08:00 12.3 7.3 71   LegendMM LegendMM   99.55     LegendNANA
09:00 14.3 6.6 60   LegendMM LegendMM   99.57     LegendNANA
10:00 15.8 7.2 57   LegendMM LegendMM   99.56     LegendNANA
11:00 17.9 7.8 52   LegendMM LegendMM   99.57     LegendNANA
12:00 18.7 7.7 49   LegendMM LegendMM   99.55     LegendNANA
13:00 18.8 6.9 46   LegendMM LegendMM   99.57     LegendNANA
14:00 18.8 7.8 49   LegendMM LegendMM   99.61     LegendNANA
15:00 18.7 7.4 48   LegendMM LegendMM   99.64     LegendNANA
16:00 18.3 7.5 49   LegendMM LegendMM   99.69     LegendNANA
17:00 16.8 8.4 58   LegendMM LegendMM   99.78     LegendNANA
18:00 16.2 8.5 60   LegendMM LegendMM   99.85     LegendNANA
19:00 14.6 8.6 67   LegendMM LegendMM   99.89     LegendNANA
20:00 13.2 7.8 70   LegendMM LegendMM   99.94     LegendNANA
21:00 12.7 6.7 67   LegendMM LegendMM   99.95     LegendNANA
22:00 12.4 6.1 65   LegendMM LegendMM   99.92     LegendNANA
23:00 12.0 6.1 67   LegendMM LegendMM   99.96     LegendNANA

Notes on Data Quality.

Legend

  • E = Estimated
  • M = Missing
  • NA = Not Available*
  • [empty] = Indicates an unobserved value
Date modified: